TimeCST,TemperatureF,Dew PointF,Humidity,Sea Level PressureIn,VisibilityMPH,Wind Direction,Wind SpeedMPH,Gust SpeedMPH,PrecipitationIn,Events,Conditions,WindDirDegrees,DateUTC
12:15 AM,46.4,42.8,87,29.70,0.2,SSE,10.4,-,N/A,,Overcast,160,2013-01-29 06:15:00
12:55 AM,46.4,44.6,93,29.68,0.2,South,9.2,-,N/A,,Overcast,170,2013-01-29 06:55:00
1:15 AM,46.4,44.6,93,29.67,0.8,South,10.4,-,N/A,,Unknown,170,2013-01-29 07:15:00
1:35 AM,51.8,48.2,88,29.66,7.0,SSW,15.0,-,N/A,,Clear,200,2013-01-29 07:35:00
1:55 AM,55.4,53.6,94,29.66,10.0,SSW,20.7,24.2,N/A,,Partly Cloudy,200,2013-01-29 07:55:00
2:15 AM,55.4,53.6,94,29.65,10.0,SSW,20.7,26.5,N/A,,Partly Cloudy,200,2013-01-29 08:15:00
2:35 AM,55.4,51.8,88,29.64,10.0,SSW,20.7,29.9,N/A,,Clear,200,2013-01-29 08:35:00
2:55 AM,55.4,51.8,88,29.65,10.0,SSW,19.6,26.5,N/A,,Clear,200,2013-01-29 08:55:00
3:15 AM,55.4,51.8,88,29.64,10.0,SSW,17.3,-,N/A,,Clear,200,2013-01-29 09:15:00
3:35 AM,55.4,51.8,88,29.63,10.0,SSW,17.3,-,N/A,,Clear,200,2013-01-29 09:35:00
3:55 AM,55.4,51.8,88,29.63,10.0,SSW,17.3,-,N/A,,Clear,200,2013-01-29 09:55:00
4:15 AM,55.4,51.8,88,29.61,10.0,SSW,16.1,-,N/A,,Clear,200,2013-01-29 10:15:00
4:35 AM,55.4,51.8,88,29.61,10.0,SSW,17.3,-,N/A,,Clear,200,2013-01-29 10:35:00
4:55 AM,55.4,51.8,88,29.60,10.0,SSW,20.7,-,N/A,,Clear,200,2013-01-29 10:55:00
5:15 AM,55.4,51.8,88,29.60,10.0,SSW,19.6,26.5,N/A,,Partly Cloudy,210,2013-01-29 11:15:00
5:35 AM,57.2,51.8,82,29.60,10.0,SSW,19.6,28.8,N/A,Thunderstorm,Scattered Clouds,210,2013-01-29 11:35:00
5:55 AM,57.2,53.6,88,29.63,8.0,SW,19.6,25.3,0.06,,Mostly Cloudy,230,2013-01-29 11:55:00
6:15 AM,57.2,51.8,82,29.63,10.0,SSW,19.6,-,N/A,,Scattered Clouds,210,2013-01-29 12:15:00
6:35 AM,55.4,51.8,88,29.62,10.0,SSW,18.4,-,0.01,,Partly Cloudy,200,2013-01-29 12:35:00
6:55 AM,55.4,51.8,88,29.61,10.0,SSW,13.8,-,0.01,,Partly Cloudy,200,2013-01-29 12:55:00
7:15 AM,55.4,51.8,88,29.61,10.0,SSW,15.0,-,N/A,,Clear,200,2013-01-29 13:15:00
7:35 AM,55.4,51.8,88,29.61,8.0,SSW,13.8,-,N/A,,Clear,200,2013-01-29 13:35:00
7:55 AM,55.4,51.8,88,29.61,8.0,SSW,15.0,-,N/A,,Clear,200,2013-01-29 13:55:00
8:15 AM,57.2,51.8,82,29.62,9.0,SSW,16.1,-,N/A,,Scattered Clouds,210,2013-01-29 14:15:00
8:35 AM,55.4,51.8,88,29.62,5.0,SSW,12.7,-,0.04,Thunderstorm,Mostly Cloudy,200,2013-01-29 14:35:00
8:55 AM,57.2,53.6,88,29.59,10.0,SSW,11.5,-,0.04,,Mostly Cloudy,200,2013-01-29 14:55:00
9:15 AM,57.2,53.6,88,29.59,8.0,South,9.2,-,N/A,,Mostly Cloudy,170,2013-01-29 15:15:00
9:35 AM,57.2,53.6,88,29.58,10.0,South,13.8,-,N/A,,Scattered Clouds,190,2013-01-29 15:35:00
9:55 AM,57.2,53.6,88,29.60,10.0,SSW,13.8,-,N/A,,Mostly Cloudy,200,2013-01-29 15:55:00
10:15 AM,59.0,53.6,82,29.60,10.0,SSW,13.8,-,N/A,,Scattered Clouds,210,2013-01-29 16:15:00
10:35 AM,59.0,53.6,82,29.60,10.0,SSW,15.0,-,N/A,,Scattered Clouds,200,2013-01-29 16:35:00
10:55 AM,60.8,55.4,82,29.59,10.0,SSW,18.4,-,N/A,,Mostly Cloudy,210,2013-01-29 16:55:00
11:15 AM,60.8,55.4,82,29.58,10.0,SW,12.7,-,N/A,,Scattered Clouds,220,2013-01-29 17:15:00
11:35 AM,60.8,53.6,77,29.58,10.0,SW,11.5,-,N/A,,Mostly Cloudy,220,2013-01-29 17:35:00
11:55 AM,59.0,53.6,82,29.56,10.0,WSW,9.2,-,N/A,,Mostly Cloudy,250,2013-01-29 17:55:00
12:15 PM,57.2,53.6,88,29.56,8.0,SW,10.4,-,N/A,,Mostly Cloudy,230,2013-01-29 18:15:00
12:35 PM,57.2,53.6,88,29.57,7.0,SW,16.1,-,N/A,,Overcast,220,2013-01-29 18:35:00
12:55 PM,57.2,53.6,88,29.58,5.0,SW,19.6,-,0.03,,Overcast,220,2013-01-29 18:55:00
1:15 PM,53.6,48.2,82,29.58,5.0,WNW,15.0,-,0.05,,Overcast,300,2013-01-29 19:15:00
1:35 PM,50.0,46.4,87,29.55,5.0,NNW,12.7,-,0.08,,Mostly Cloudy,330,2013-01-29 19:35:00
1:55 PM,50.0,46.4,87,29.54,5.0,NW,13.8,-,0.10,,Overcast,320,2013-01-29 19:55:00
2:15 PM,48.2,44.6,87,29.55,4.0,WNW,12.7,-,0.01,,Overcast,300,2013-01-29 20:15:00
2:35 PM,46.4,44.6,93,29.54,4.0,WNW,10.4,-,0.03,,Overcast,290,2013-01-29 20:35:00
2:55 PM,46.4,42.8,87,29.54,4.0,WNW,6.9,-,0.06,,Overcast,300,2013-01-29 20:55:00
3:15 PM,46.4,42.8,87,29.54,3.0,West,9.2,-,0.02,,Overcast,280,2013-01-29 21:15:00
3:35 PM,44.6,42.8,93,29.52,3.0,Calm,Calm,-,0.06,,Mostly Cloudy,0,2013-01-29 21:35:00
3:55 PM,44.6,42.8,93,29.52,3.0,NW,8.1,-,0.06,,Mostly Cloudy,320,2013-01-29 21:55:00
4:15 PM,44.6,41.0,87,29.52,3.0,North,6.9,-,0.02,,Overcast,360,2013-01-29 22:15:00
4:35 PM,44.6,39.2,81,29.52,3.0,North,4.6,-,0.03,,Overcast,360,2013-01-29 22:35:00
4:55 PM,42.8,39.2,87,29.52,4.0,NNW,8.1,-,0.05,,Overcast,340,2013-01-29 22:55:00
5:15 PM,42.8,39.2,87,29.53,4.0,NW,3.5,-,0.03,,Overcast,320,2013-01-29 23:15:00
5:35 PM,42.8,39.2,87,29.53,4.0,Calm,Calm,-,0.06,,Scattered Clouds,0,2013-01-29 23:35:00
5:55 PM,42.8,39.2,87,29.52,3.0,NNW,5.8,-,0.08,,Scattered Clouds,340,2013-01-29 23:55:00
6:15 PM,41.0,37.4,87,29.53,2.5,NW,8.1,-,N/A,,Overcast,310,2013-01-30 00:15:00
6:35 PM,41.0,37.4,87,29.53,3.0,NNW,9.2,-,0.01,,Overcast,330,2013-01-30 00:35:00
6:55 PM,41.0,37.4,87,29.53,3.0,North,8.1,-,0.02,,Overcast,350,2013-01-30 00:55:00
7:15 PM,39.2,37.4,93,29.51,4.0,North,6.9,-,N/A,,Overcast,10,2013-01-30 01:15:00
7:35 PM,39.2,37.4,93,29.50,4.0,North,10.4,-,0.01,,Overcast,350,2013-01-30 01:35:00
7:55 PM,39.2,35.6,87,29.54,4.0,NNW,8.1,-,0.01,,Overcast,330,2013-01-30 01:55:00
8:15 PM,39.2,35.6,87,29.50,5.0,North,10.4,-,0.03,,Overcast,360,2013-01-30 02:15:00
8:35 PM,39.2,35.6,87,29.49,5.0,North,9.2,-,0.04,,Overcast,10,2013-01-30 02:35:00
8:55 PM,37.4,35.6,93,29.52,6.0,NNW,12.7,-,0.05,,Overcast,330,2013-01-30 02:55:00
9:15 PM,37.4,35.6,93,29.52,5.0,NNW,15.0,-,0.01,,Overcast,340,2013-01-30 03:15:00
9:35 PM,37.4,33.8,87,29.51,5.0,North,12.7,-,0.04,,Overcast,350,2013-01-30 03:35:00
9:55 PM,37.4,33.8,87,29.47,5.0,NNE,13.8,-,0.05,,Overcast,20,2013-01-30 03:55:00
10:15 PM,37.4,33.8,87,29.49,5.0,North,13.8,-,N/A,,Overcast,360,2013-01-30 04:15:00
10:35 PM,37.4,33.8,87,29.52,5.0,North,10.4,-,0.01,,Overcast,360,2013-01-30 04:35:00
10:55 PM,37.4,33.8,87,29.50,3.0,North,11.5,-,0.04,,Overcast,350,2013-01-30 04:55:00
11:15 PM,35.6,33.8,93,29.52,2.5,NNW,11.5,-,0.02,,Overcast,330,2013-01-30 05:15:00
11:35 PM,35.6,32.0,87,29.48,3.0,North,13.8,-,0.03,,Overcast,350,2013-01-30 05:35:00
11:55 PM,35.6,32.0,87,29.48,4.0,North,13.8,-,0.04,,Overcast,360,2013-01-30 05:55:00